International Skating Union - Official Site

Essent ISU World Cup Hamar
February 11-12, 2012

Draw | Lap Times | Index | World Cup

Referee: Jan  BOLT  (NED)
Starter: Jouko  VESTERLUND  (FIN)
StartTime: EndTime: Air Temp: Ice Temp: Humidity:
12:32 13:56 12.1℃ -8.2℃ 24%
Result 5000m Men Division B
Rankings as of Feb 11 2012 3:17PM
Rank: No.: Name: Nation: Time: Behind: Points:
1 38 Ted-Jan  BLOEMEN NED NED 6:21.91200m - 18.94 - (18.9)
600m - 48.86 - (29.9)
1000m - 1:19.00 - (30.1)
1400m - 1:49.44 - (30.4)
1800m - 2:19.90 - (30.4)
2200m - 2:50.31 - (30.4)
2600m - 3:20.46 - (30.1)
3000m - 3:50.54 - (30.0)
3400m - 4:20.15 - (29.6)
3800m - 4:50.03 - (29.8)
4200m - 5:20.32 - (30.2)
4600m - 5:50.95 - (30.6)
5000m - 6:21.91 - (30.9)
25
2 46 Koen  VERWEIJ NED NED 6:23.83200m - 18.19 - (18.1)
600m - 46.52 - (28.3)
1000m - 1:15.91 - (29.4)
1400m - 1:45.81 - (29.9)
1800m - 2:15.83 - (30.0)
2200m - 2:45.99 - (30.1)
2600m - 3:16.18 - (30.1)
3000m - 3:47.09 - (30.9)
3400m - 4:18.14 - (31.0)
3800m - 4:49.37 - (31.2)
4200m - 5:20.97 - (31.5)
4600m - 5:52.83 - (31.8)
5000m - 6:23.83 - (31.0)
1.92 19
3 69 Brian  HANSEN USA USA 6:37.01200m - 19.54 - (19.5)
600m - 50.38 - (30.8)
1000m - 1:21.48 - (31.1)
1400m - 1:52.91 - (31.4)
1800m - 2:24.31 - (31.4)
2200m - 2:55.64 - (31.3)
2600m - 3:27.15 - (31.5)
3000m - 3:58.27 - (31.1)
3400m - 4:29.58 - (31.3)
3800m - 5:01.05 - (31.4)
4200m - 5:32.76 - (31.7)
4600m - 6:04.58 - (31.8)
5000m - 6:37.01 - (32.4)
15.10 15
4 58 Roland  CIESLAK POL POL 6:37.12200m - 20.06 - (20.0)
600m - 51.08 - (31.0)
1000m - 1:21.98 - (30.9)
1400m - 1:52.77 - (30.8)
1800m - 2:23.44 - (30.6)
2200m - 2:54.11 - (30.6)
2600m - 3:25.21 - (31.1)
3000m - 3:56.92 - (31.7)
3400m - 4:28.47 - (31.5)
3800m - 5:00.05 - (31.5)
4200m - 5:31.96 - (31.9)
4600m - 6:04.38 - (32.4)
5000m - 6:37.12 - (32.7)
15.21 11
5 60 Jan  SZYMANSKI POL POL 6:38.60200m - 19.21 - (19.2)
600m - 50.14 - (30.9)
1000m - 1:20.86 - (30.7)
1400m - 1:51.66 - (30.7)
1800m - 2:22.40 - (30.7)
2200m - 2:53.19 - (30.7)
2600m - 3:24.24 - (31.0)
3000m - 3:55.39 - (31.1)
3400m - 4:26.89 - (31.5)
3800m - 4:59.41 - (32.5)
4200m - 5:33.31 - (33.9)
4600m - 6:06.28 - (32.9)
5000m - 6:38.60 - (32.3)
16.69 8
6 67 Roger  SCHNEIDER SUI SUI 6:38.67200m - 19.83 - (19.8)
600m - 50.95 - (31.1)
1000m - 1:22.02 - (31.0)
1400m - 1:53.22 - (31.2)
1800m - 2:24.26 - (31.0)
2200m - 2:55.58 - (31.3)
2600m - 3:26.96 - (31.3)
3000m - 3:58.76 - (31.8)
3400m - 4:30.52 - (31.7)
3800m - 5:02.40 - (31.8)
4200m - 5:34.59 - (32.1)
4600m - 6:06.53 - (31.9)
5000m - 6:38.67 - (32.1)
16.76 6
7 63 Aleksandr  RUMYANTSEV RUS RUS 6:39.80200m - 19.85 - (19.8)
600m - 50.90 - (31.0)
1000m - 1:21.69 - (30.7)
1400m - 1:53.11 - (31.4)
1800m - 2:24.29 - (31.1)
2200m - 2:55.69 - (31.4)
2600m - 3:27.41 - (31.7)
3000m - 3:59.52 - (32.1)
3400m - 4:31.36 - (31.8)
3800m - 5:03.47 - (32.1)
4200m - 5:35.67 - (32.2)
4600m - 6:07.53 - (31.8)
5000m - 6:39.80 - (32.2)
17.89 4
8 66 Martin  HÄNGGI SUI SUI 6:41.25200m - 19.62 - (19.6)
600m - 50.48 - (30.8)
1000m - 1:22.29 - (31.8)
1400m - 1:54.09 - (31.8)
1800m - 2:25.97 - (31.8)
2200m - 2:57.25 - (31.2)
2600m - 3:28.47 - (31.2)
3000m - 3:59.91 - (31.4)
3400m - 4:31.62 - (31.7)
3800m - 5:03.77 - (32.1)
4200m - 5:35.98 - (32.2)
4600m - 6:08.36 - (32.3)
5000m - 6:41.25 - (32.8)
19.34 2
9 25 Marco  CIGNINI ITA ITA 6:41.78200m - 19.67 - (19.6)
600m - 50.81 - (31.1)
1000m - 1:22.33 - (31.5)
1400m - 1:53.63 - (31.3)
1800m - 2:25.25 - (31.6)
2200m - 2:56.96 - (31.7)
2600m - 3:28.41 - (31.4)
3000m - 4:00.19 - (31.7)
3400m - 4:31.98 - (31.8)
3800m - 5:03.95 - (31.9)
4200m - 5:36.20 - (32.2)
4600m - 6:08.58 - (32.3)
5000m - 6:41.78 - (33.2)
19.87 1
10 71 Patrick  MEEK USA USA 6:42.36200m - 19.76 - (19.7)
600m - 50.25 - (30.4)
1000m - 1:21.62 - (31.3)
1400m - 1:52.96 - (31.3)
1800m - 2:24.48 - (31.5)
2200m - 2:55.49 - (31.0)
2600m - 3:26.91 - (31.4)
3000m - 3:58.76 - (31.8)
3400m - 4:30.74 - (31.9)
3800m - 5:02.92 - (32.1)
4200m - 5:35.57 - (32.6)
4600m - 6:08.71 - (33.1)
5000m - 6:42.36 - (33.6)
20.45 0
11 1 Joshua  LOSE AUS AUS 6:44.02200m - 19.78 - (19.7)
600m - 50.36 - (30.5)
1000m - 1:20.90 - (30.5)
1400m - 1:51.99 - (31.0)
1800m - 2:23.41 - (31.4)
2200m - 2:54.72 - (31.3)
2600m - 3:26.46 - (31.7)
3000m - 3:58.58 - (32.1)
3400m - 4:30.85 - (32.2)
3800m - 5:03.63 - (32.7)
4200m - 5:36.67 - (33.0)
4600m - 6:10.18 - (33.5)
5000m - 6:44.02 - (33.8)
22.11 0
12 27 Luca  STEFANI ITA ITA 6:44.97200m - 19.75 - (19.7)
600m - 51.07 - (31.3)
1000m - 1:22.56 - (31.4)
1400m - 1:54.38 - (31.8)
1800m - 2:26.26 - (31.8)
2200m - 2:58.33 - (32.0)
2600m - 3:30.67 - (32.3)
3000m - 4:02.94 - (32.2)
3400m - 4:34.88 - (31.9)
3800m - 5:07.14 - (32.2)
4200m - 5:39.66 - (32.5)
4600m - 6:12.05 - (32.3)
5000m - 6:44.97 - (32.9)
23.06 0
13 54 Thomas-Henrik  SØFTELAND NOR NOR 6:45.04200m - 20.28 - (20.2)
600m - 51.93 - (31.6)
1000m - 1:23.34 - (31.4)
1400m - 1:54.44 - (31.1)
1800m - 2:25.61 - (31.1)
2200m - 2:57.11 - (31.5)
2600m - 3:28.59 - (31.4)
3000m - 4:00.31 - (31.7)
3400m - 4:32.42 - (32.1)
3800m - 5:04.99 - (32.5)
4200m - 5:38.10 - (33.1)
4600m - 6:11.46 - (33.3)
5000m - 6:45.04 - (33.5)
23.13 0
14 7 Scott  BICKERTON CAN CAN 6:45.38200m - 19.51 - (19.5)
600m - 49.98 - (30.4)
1000m - 1:21.20 - (31.2)
1400m - 1:52.94 - (31.7)
1800m - 2:24.11 - (31.1)
2200m - 2:55.20 - (31.0)
2600m - 3:26.64 - (31.4)
3000m - 3:58.46 - (31.8)
3400m - 4:30.93 - (32.4)
3800m - 5:04.16 - (33.2)
4200m - 5:37.34 - (33.1)
4600m - 6:11.38 - (34.0)
5000m - 6:45.38 - (34.0)
23.47 0
15 61 Pavel  BAYNOV RUS RUS 6:46.60200m - 19.84 - (19.8)
600m - 50.58 - (30.7)
1000m - 1:21.95 - (31.3)
1400m - 1:53.04 - (31.0)
1800m - 2:24.36 - (31.3)
2200m - 2:55.76 - (31.4)
2600m - 3:27.69 - (31.9)
3000m - 4:00.05 - (32.3)
3400m - 4:32.30 - (32.2)
3800m - 5:05.08 - (32.7)
4200m - 5:38.73 - (33.6)
4600m - 6:12.74 - (34.0)
5000m - 6:46.60 - (33.8)
24.69 0
16 12 Stefan  WAPLES CAN CAN 6:47.19200m - 19.94 - (19.9)
600m - 52.13 - (32.2)
1000m - 1:24.36 - (32.2)
1400m - 1:56.62 - (32.2)
1800m - 2:29.05 - (32.4)
2200m - 3:01.43 - (32.3)
2600m - 3:33.22 - (31.7)
3000m - 4:04.95 - (31.7)
3400m - 4:36.72 - (31.7)
3800m - 5:08.48 - (31.7)
4200m - 5:40.66 - (32.1)
4600m - 6:13.67 - (33.0)
5000m - 6:47.19 - (33.5)
25.28 0
17 2 Bram  SMALLENBROEK AUT AUT 6:47.62200m - 19.00 - (19.0)
600m - 49.60 - (30.6)
1000m - 1:20.59 - (30.9)
1400m - 1:51.96 - (31.3)
1800m - 2:23.05 - (31.0)
2200m - 2:54.56 - (31.5)
2600m - 3:26.38 - (31.8)
3000m - 3:58.20 - (31.8)
3400m - 4:30.73 - (32.5)
3800m - 5:03.69 - (32.9)
4200m - 5:37.54 - (33.8)
4600m - 6:12.11 - (34.5)
5000m - 6:47.62 - (35.5)
25.71 0
18 5 Vitaly  MIKHAILOV BLR BLR 6:47.91200m - 19.59 - (19.5)
600m - 50.19 - (30.6)
1000m - 1:20.87 - (30.6)
1400m - 1:51.97 - (31.1)
1800m - 2:23.21 - (31.2)
2200m - 2:54.93 - (31.7)
2600m - 3:27.56 - (32.6)
3000m - 4:00.64 - (33.0)
3400m - 4:33.12 - (32.4)
3800m - 5:06.26 - (33.1)
4200m - 5:39.75 - (33.4)
4600m - 6:13.71 - (33.9)
5000m - 6:47.91 - (34.2)
26.00 0
19 29 Teppei  MORI JPN JPN 6:48.78200m - 19.80 - (19.8)
600m - 50.59 - (30.7)
1000m - 1:22.25 - (31.6)
1400m - 1:54.41 - (32.1)
1800m - 2:26.80 - (32.3)
2200m - 2:59.48 - (32.6)
2600m - 3:32.11 - (32.6)
3000m - 4:05.21 - (33.1)
3400m - 4:38.13 - (32.9)
3800m - 5:11.29 - (33.1)
4200m - 5:44.57 - (33.2)
4600m - 6:16.56 - (31.9)
5000m - 6:48.78 - (32.2)
26.87 0
20 57 Slawomir  CHMURA POL POL 6:51.84200m - 20.33 - (20.3)
600m - 51.08 - (30.7)
1000m - 1:22.29 - (31.2)
1400m - 1:54.01 - (31.7)
1800m - 2:25.88 - (31.8)
2200m - 2:58.05 - (32.1)
2600m - 3:30.31 - (32.2)
3000m - 4:02.85 - (32.5)
3400m - 4:35.75 - (32.9)
3800m - 5:08.73 - (32.9)
4200m - 5:42.54 - (33.8)
4600m - 6:16.79 - (34.2)
5000m - 6:51.84 - (35.0)
29.93 0
21 3 Ferre  SPRUYT BEL BEL 6:57.71200m - 19.58 - (19.5)
600m - 50.95 - (31.3)
1000m - 1:23.00 - (32.0)
1400m - 1:55.32 - (32.3)
1800m - 2:27.99 - (32.6)
2200m - 3:01.11 - (33.1)
2600m - 3:34.39 - (33.2)
3000m - 4:08.02 - (33.6)
3400m - 4:41.20 - (33.1)
3800m - 5:14.99 - (33.7)
4200m - 5:49.03 - (34.0)
4600m - 6:23.45 - (34.4)
5000m - 6:57.71 - (34.2)
35.80 0
22 30 Shota  NAKAMURA JPN JPN 6:58.77200m - 19.05 - (19.0)
600m - 50.50 - (31.4)
1000m - 1:22.32 - (31.8)
1400m - 1:54.20 - (31.8)
1800m - 2:25.76 - (31.5)
2200m - 2:57.87 - (32.1)
2600m - 3:30.24 - (32.3)
3000m - 4:03.32 - (33.0)
3400m - 4:37.49 - (34.1)
3800m - 5:12.64 - (35.1)
4200m - 5:48.46 - (35.8)
4600m - 6:23.65 - (35.1)
5000m - 6:58.77 - (35.1)
36.86 0
23 14 Pavel  KULMA CZE CZE DQ200m - 19.86 - (19.8)
600m - 51.06 - (31.2)
1000m - 1:22.48 - (31.4)
1400m - 1:54.16 - (31.6)
1800m - 2:26.60 - (32.4)
2200m - 2:59.39 - (32.7)
2600m - 3:32.82 - (33.4)
3000m - 4:06.69 - (33.8)
3400m - 4:40.80 - (34.1)
3800m - 5:15.62 - (34.8)
4200m - 5:51.05 - (35.4)
4600m - 6:26.87 - (35.8)
5000m - 7:02.08 - (35.2)
0